www.pogodaiklimat.ru

Погода и климат >> Архив погоды >> Россия >> Чукотка >> Анадырь


АРХИВ ПОГОДЫ в Анадыре

Время (UTC), дата Ветер
(напр.,м/с)
 
Видим.   Явления Облачность Т
(С)
Тd
(С)
f
(%)
Тe
(С)
Тes
(С)
Комфортность P
(гПа)
Po
(гПа)
Тmin
(С)
Tmax
(С)
R
(мм)
R24
(мм)
S
(см)
00 14.01 СЗ 9-10
{10}
50 км 1/0
[Ci fib]
-32.1 -35.7 70 -49 -49 опасность
обморожения
1012.3 1003.7
03 14.01 СЗ 8
{10}
50 км ясно -32.7 -36.4 69 -49 -49 опасность
обморожения
1011.1 1002.3
06 14.01 СЗ 8
{9}
50 км ясно -32.9 -36.4 71 -49 -49 опасность
обморожения
1009.5 1000.7 -29.5
09 14.01 СЗ 6
{9}
50 км 8/0
[Ac trans Ci fib]
-31.1 -34.7 70 -45 -45 опасность
обморожения
1009.3 1000.7
12 14.01 З 7
{10}
50 км 9/5 600 м
[Sc Ac trans]
-29.3 -33.1 70 -44 -44 опасность
обморожения
1008.3 999.7
15 14.01 СЗ 8-10
{11}
10 км слаб. ливневой снег {метель} 10/10 600 м
[Cb cap]
-28.1 -31.1 75 -43 -43 опасность
обморожения
1007.8 999.2
18 14.01 СЗ 6
{10}
10 км слаб. ливневой снег {метель} 10/10 600 м
[Cb cap]
-27.1 -30.1 76 -40 -40 опасность
обморожения
1007.5 999.1 -32.9 0.2 30
21 14.01 СЗ 10-12
{13}
5000 м слаб. ливневой снег {метель} 10/10 600 м
[Cb cap]
-25.6 -28.8 74 -41 -41 опасность
обморожения
1007.0 998.6
00 15.01 СЗ 10-12
{13}
7000 м слаб. ливневой снег {метель} 10/10 600 м
[Cb cap]
-24.9 -28.1 75 -40 -40 опасность
обморожения
1007.1 998.7
03 15.01 СЗ 11-13
{14}
5000 м слаб. ливневой снег {метель} 10/10 600 м
[Cb cap]
-24.1 -27.3 75 -40 -40 опасность
обморожения
1006.0 997.6
06 15.01 СЗ 11-13
{14}
10 км слаб. ливневой снег {метель} 10/10 300 м
[Cb cap]
-22.5 -25.7 75 -37 -37 опасность
обморожения
1005.2 996.9 -22.5 2
09 15.01 СЗ 12-13
{14}
5000 м слаб. ливневой снег {метель} 10/10 300 м
[Cb cap]
-20.6 -23.1 80 -35 -35 опасность
обморожения
1004.5 996.2
12 15.01 СЗ 11-13
{14}
7000 м слаб. ливневой снег {метель} 10/10 300 м
[Cb cap]
-21.6 -24.1 80 -36 -36 опасность
обморожения
1004.2 995.9
15 15.01 СЗ 10-12
{13}
10 км слаб. ливневой снег {метель} 10/10 300 м
[Cb cap]
-22.8 -26.0 75 -37 -37 опасность
обморожения
1004.4 996.0
18 15.01 СЗ 10-12
{14}
10 км слаб. ливневой снег {метель} 10/10 300 м
[Cb cap]
-21.4 -23.9 80 -35 -35 опасность
обморожения
1003.8 995.5 -23.0 2 31
21 15.01 СЗ 8-12
{13}
6000 м слаб. ливневой снег {метель} 10/10 300 м
[Cb cap]
-21.1 -23.6 80 -34 -34 опасность
обморожения
1004.3 996.0
00 16.01 СЗ 10-12
{13}
7000 м слаб. ливневой снег {метель} 10/10 300 м
[Cb cap]
-20.8 -23.3 80 -35 -35 опасность
обморожения
1003.5 995.2
03 16.01 СЗ 9-11
{14}
5000 м слаб. ливневой снег {метель} 10/10 300 м
[Cb cap]
-21.7 -24.2 80 -35 -35 опасность
обморожения
1003.4 995.1
06 16.01 СЗ 10-13
{14}
5000 м слаб. ливневой снег {метель} 10/10 300 м
[Cb cap]
-21.1 -23.6 80 -35 -35 опасность
обморожения
1003.5 995.2 -20.7 2
09 16.01 СЗ 12-14
{14}
2000 м слаб. ливневой снег {метель} 10/10 300 м
[Cb cap]
-21.3 -23.8 80 -36 -36 опасность
обморожения
1004.4 996.1
12 16.01 СЗ 12-13
{14}
3000 м слаб. ливневой снег {метель} 10/10 300 м
[Cb cap]
-21.1 -23.6 80 -36 -36 опасность
обморожения
1004.9 996.6
15 16.01 СЗ 10-12
{13}
6000 м слаб. ливневой снег {метель} 10/10 300 м
[Cb cap]
-21.1 -23.6 80 -35 -35 опасность
обморожения
1005.1 996.8
18 16.01 СЗ 9-10
{14}
6000 м слаб. ливневой снег {метель} 10/10 300 м
[Cb cap]
-20.7 -23.2 80 -34 -34 опасность
обморожения
1005.8 997.5 -21.7 2 30
21 16.01 СЗ 8-11
{13}
5000 м слаб. ливневой снег {метель} 10/10 300 м
[Cb cap]
-20.7 -23.2 80 -33 -33 опасность
обморожения
1006.4 998.1
00 17.01 З 10-12
{13}
5000 м слаб. ливневой снег {метель} 9/8 300 м
[Cb cap Ci fib]
-20.2 -22.8 80 -34 -34 опасность
обморожения
1006.7 998.4
03 17.01 З 8-10
{14}
10 км слаб. ливневой снег {метель} 9/8 600 м
[Cb cap Ac trans]
-19.9 -22.5 80 -32 -32 опасность
обморожения
1008.2 999.9
06 17.01 СЗ 6
{11}
50 км позёмок {ливн. осадки} 9/5 600 м
[Cb cap Ac trans]
-21.1 -23.6 80 -32 -32 опасность
обморожения
1009.8 1001.5 -19.6 2
09 17.01 С 6
{11}
50 км {метель} 4/4 600 м
[Cb cap]
-22.0 -24.5 80 -33 -33 опасность
обморожения
1010.5 1002.2
12 17.01 С 5
{9}
50 км {метель} 5/3 600 м
[Sc Ac trans]
-22.1 -24.7 79 -33 -33 опасность
обморожения
1011.2 1002.9
15 17.01 С 7
{9}
50 км 5/0
[Ac trans Ci fib]
-22.9 -26.1 75 -35 -35 опасность
обморожения
1011.4 1003.0
18 17.01 С 6
{9}
50 км 3/0
[Ci fib]
-23.2 -26.4 75 -35 -35 опасность
обморожения
1012.2 1003.8 -24.0 30
21 17.01 С 4
{8}
50 км 1/1 600 м
[Sc]
-24.3 -27.5 75 -34 -34 опасность
обморожения
1012.9 1004.5 -24.4
00 18.01 СВ 4
{7}
50 км 3/0
[Ci fib]
-24.3 -27.5 75 -34 -34 опасность
обморожения
1013.7 1005.2
03 18.01 С 3
{7}
50 км 4/0
[Ac trans Ci fib]
-24.6 -27.7 75 -33 -33 опасность
обморожения
1014.3 1005.8
06 18.01 СЗ 1
{6}
50 км 9/0
[Ac trans Ci fib]
-24.4 -27.6 75 -28 -28 по сезону 1015.4 1006.9 -22.9
09 18.01 СЗ 2
{3}
50 км 9/0
[Ac As Ci fib]
-24.0 -27.2 75 -30 -30 по сезону 1016.8 1008.3
12 18.01 СЗ 4
{6}
50 км 4/0
[Ac trans]
-24.2 -27.3 75 -34 -34 опасность
обморожения
1018.0 1009.5
15 18.01 СЗ 4
{5}
50 км 3/0
[Ac trans]
-25.0 -28.1 75 -35 -35 опасность
обморожения
1018.3 1009.8
18 18.01 СЗ 5
{7}
50 км 9/0
[Ac trans Ci fib]
-24.5 -27.7 75 -36 -36 опасность
обморожения
1018.1 1009.6 -25.1 29
21 18.01 СЗ 5
{6}
50 км 10/5 600 м
[Sc Ac trans]
-23.1 -26.3 75 -34 -34 опасность
обморожения
1019.2 1010.7
00 19.01 СЗ 5
{6}
50 км 9/8 600 м
[Sc Ac trans]
-22.1 -25.4 74 -33 -33 опасность
обморожения
1019.4 1011.1
03 19.01 штиль 0
{6}
20 км слаб. ливневой снег 10/10 600 м
[Cb cap]
-20.8 -24.1 75 -21 -21 тепло 1019.4 1011.1
06 19.01 штиль 0
{3}
50 км {ливн. осадки} 8/8 600 м
[Cb cap]
-20.8 -24.1 75 -21 -21 тепло 1019.1 1010.8 -20.3 0.0
09 19.01 СЗ 1
{4}
10 км слаб. ливневой снег 10/10 600 м
[Cb cap]
-20.1 -22.7 80 -23 -23 тепло 1019.3 1011.0
12 19.01 С 1
{2}
5000 м слаб. ливневой снег 10/10 300 м
[Cb cap]
-19.2 -21.8 80 -22 -22 тепло 1019.9 1011.6
15 19.01 СЗ 6
{7}
50 км позёмок {ливн. осадки} 9/9 600 м
[Cb cap]
-20.2 -22.8 80 -31 -31 опасность
обморожения
1019.9 1011.6
18 19.01 СЗ 6
{9}
50 км позёмок {ливн. осадки} 9/8 600 м
[Cb cap]
-22.9 -25.4 80 -35 -35 опасность
обморожения
1020.3 1012.0 -23.6 0.8 30
21 19.01 СЗ 6
{8}
50 км позёмок 9/8 600 м
[Cb cap Ac trans]
-22.8 -26.0 75 -34 -34 опасность
обморожения
1021.5 1013.0
00 20.01 СЗ 6
{8}
50 км позёмок 9/6 600 м
[Cb cap Ac trans]
-22.7 -25.9 75 -34 -34 опасность
обморожения
1021.9 1013.4
03 20.01 СЗ 5
{8}
50 км {метель} 8/5 600 м
[Cb cap Ac trans]
-24.7 -27.8 75 -36 -36 опасность
обморожения
1022.6 1014.1
06 20.01 СЗ 6
{8}
50 км позёмок 9/9 600 м
[Cb cap]
-25.1 -28.2 75 -37 -37 опасность
обморожения
1022.7 1014.2 -21.7
09 20.01 СЗ 8
{10}
20 км слаб. ливневой снег {метель} 10/10 600 м
[Cb cap]
-23.0 -26.3 74 -36 -36 опасность
обморожения
1023.6 1015.0
12 20.01 СЗ 7
{9}
20 км слаб. ливневой снег {метель} 10/10 600 м
[Cb cap]
-22.5 -25.7 75 -35 -35 опасность
обморожения
1024.4 1016.0
15 20.01 СЗ 5
{8}
50 км {ливн. осадки, метель} 9/9 600 м
[Cb cap]
-21.6 -24.8 75 -32 -32 опасность
обморожения
1024.1 1015.7
18 20.01 СЗ 5
{8}
50 км {ливн. осадки, метель} 9/9 600 м
[Cb cap]
-20.3 -23.6 75 -30 -30 по сезону 1024.7 1016.3 -25.2 0.0 29
21 20.01 СЗ 5
{8}
50 км 9/9 600 м
[Cb cap]
-20.5 -23.8 75 -31 -31 опасность
обморожения
1025.2 1016.8

 

Местоположение метеостанции Анадырь (Чукотка, Россия): широта 64.78 долгота 177.50 высота над уровнем моря 61 м.

В архиве по умолчанию представлена погода в Анадыре за последнюю неделю. Архивные данные за месяц целиком и за предыдущие месяцы, начиная с января 2011 года, Вы можете получить, выбрав интересующий диапазон дат из раскрывающегося списка и нажав кнопку "Ввод!".


*Определитесь, кто Вы:
робот инопланетянин человек

Внимание! Время в таблицах - всемирное. Для получения местного времени необходимо прибавить поправку, которая равна 12 ч.

Смотрите также архив погоды в соседних городах и на ближайших метеорологических станциях:

Погода в Анадыре АМС (Чукотка, Россия) (7 км)
Погода в Канчалане (Чукотка, Россия) (58 км)
Погода в Танюрере (Чукотка, Россия) (147 км)
Погода в Эньмувееме (Чукотка, Россия) (263 км)
Погода в Марково (Чукотка, Россия) (337 км)
Погода в Майской (Чукотка, Россия) (457 км)
Погода в Слаутном (Камчатский край, Россия) (504 км)
Погода в Паляваам-Глубокой (Чукотка, Россия) (505 км)
Погода в Илирнее (Чукотка, Россия) (513 км)
Погода в Комсомольской (Чукотка, Россия) (525 км)

Пояснения к столбцам:

Ветер - указаны скорость ветра в м/с - средняя за 10 мин, порывы в срок и между сроками (в фигурных скобках) и направление, откуда дует ветер: С - северный, СВ - северо-восточный, В - восточный, ЮВ - юго-восточный, Ю - южный, ЮЗ - юго-западный, З - западный, СЗ - северо-западный.
Видимость - горизонтальная дальность видимости в метрах или километрах. При видимости от 1 до 10 км при отсутствии осадков обычно наблюдается дымка, при ухудшении видимости до 1 км и менее - туман. В сухую погоду видимость может ухудшаться дымом, пылью или мглою.
Явления - указаны атмосферные явления, наблюдавшиеся в срок или в последний час перед сроком; фигурными скобками обозначены явления, наблюдавшиеся между сроками (за 1-3 часа до срока); квадратными скобками обозначены град или гололедные отложения с указанием их диаметра в мм.
Облачность - указаны через наклонную черту общая и нижняя облачность в баллах и высота нижней границы облаков в метрах; квадратными скобками обозначены формы облаков: Ci - перистые, Cs - перисто-слоистые, Cc - перисто-кучевые, Ac - высококучевые, As - высокослоистые, Sc - слоисто-кучевые, Ns - слоисто-дождевые, Cu - кучевые, Cb - кучево-дождевые. Подробнее классификацию облаков см. в Атласе облаков (PDF).
T - Температура воздуха - температура, измеренная на высоте 2 м над землей.
Td - Температура точки росы - температура, при понижении до которой содержащийся в воздухе водяной пар достигнет насыщения.
f - Относительная влажность воздуха - влажноcть воздуха, измеренная на высоте 2 м над землей.
Te - Эффективная температура - температура, которую ощущает одетый по сезону человек в тени. Характеристика душности погоды. При расчете учитывается влияние влажности воздуха и скорости ветра на теплоощущения человека.
Tes - Эффективная температура на солнце - температура, которую ощущает человек, с поправкой на солнечный нагрев. Характеристика знойности погоды. Зависит от высоты солнца над горизонтом, облачности и скорости ветра. Ночью, в пасмурную погоду, а также при ветре 12 м/с и более поправка равна нулю.
P - Атмосферное давление - приведенное к уровню моря атмосферное давление.
Po - Атмосферное давление - измеренное на уровне метеостанции атмосферное давление.
Tmin - Минимальная температура - минимум температуры воздуха на высоте 2 м над землей.
Tmax - Максимальная температура - максимум температуры воздуха на высоте 2 м над землей.
R - Количество осадков - Количество выпавших осадков за период времени, мм. При наведении курсора мыши на число - период времени, за который выпало указанное количество осадков.
R24 - Количество осадков - Количество выпавших осадков за 24 часа, мм.
S - Снежный покров - Высота снежного покрова, см. При наведении курсора мыши на число - состояние снежного покрова и степень покрытия местности в баллах.